Time,TemperatureF,DewpointF,PressureIn,WindDirection,WindDirectionDegrees,WindSpeedMPH,WindSpeedGustMPH,Humidity,HourlyPrecipIn,Conditions,Clouds,dailyrainin,SoftwareType,DateUTC
2013-04-27 00:06:00,50.0,45.0,30.18,ENE,75,3.0,5.0,84,0.00,,,0.00,weatherlink.com 1.10,2013-04-27 07:06:00,
2013-04-27 00:21:00,49.9,46.0,30.18,ENE,75,2.0,5.0,85,0.00,,,0.00,weatherlink.com 1.10,2013-04-27 07:21:00,
2013-04-27 00:36:00,49.9,45.0,30.19,ENE,75,3.0,6.0,84,0.00,,,0.00,weatherlink.com 1.10,2013-04-27 07:36:00,
2013-04-27 00:51:00,49.9,45.0,30.19,ENE,75,3.0,6.0,84,0.00,,,0.00,weatherlink.com 1.10,2013-04-27 07:51:00,
2013-04-27 01:06:00,49.8,46.0,30.18,ENE,75,2.0,8.0,85,0.00,,,0.00,weatherlink.com 1.10,2013-04-27 08:06:00,
2013-04-27 01:21:00,49.6,45.0,30.18,ENE,77,7.0,8.0,85,0.00,,,0.00,weatherlink.com 1.10,2013-04-27 08:21:00,
2013-04-27 01:36:00,49.2,45.0,30.18,ENE,77,7.0,8.0,86,0.00,,,0.00,weatherlink.com 1.10,2013-04-27 08:36:00,
2013-04-27 01:51:00,49.0,45.0,30.17,ENE,77,3.0,7.0,86,0.00,,,0.00,weatherlink.com 1.10,2013-04-27 08:51:00,
2013-04-27 02:06:00,49.0,45.0,30.17,ENE,77,2.0,6.0,86,0.00,,,0.00,weatherlink.com 1.10,2013-04-27 09:06:00,
2013-04-27 02:21:00,49.0,45.0,30.16,ENE,75,7.0,8.0,86,0.00,,,0.00,weatherlink.com 1.10,2013-04-27 09:21:00,
2013-04-27 02:36:00,48.8,45.0,30.16,ENE,75,3.0,7.0,87,0.00,,,0.00,weatherlink.com 1.10,2013-04-27 09:36:00,
2013-04-27 02:51:00,48.6,45.0,30.16,ENE,75,5.0,7.0,88,0.00,,,0.00,weatherlink.com 1.10,2013-04-27 09:51:00,
2013-04-27 03:06:00,48.5,45.0,30.15,ENE,75,5.0,8.0,88,0.00,,,0.00,weatherlink.com 1.10,2013-04-27 10:06:00,
2013-04-27 03:21:00,48.5,45.0,30.15,ENE,78,5.0,8.0,88,0.00,,,0.00,weatherlink.com 1.10,2013-04-27 10:21:00,
2013-04-27 03:37:00,48.5,45.0,30.15,ENE,77,6.0,8.0,88,0.00,,,0.00,weatherlink.com 1.10,2013-04-27 10:37:00,
2013-04-27 03:52:00,48.4,45.0,30.15,ENE,76,7.0,8.0,88,0.00,,,0.00,weatherlink.com 1.10,2013-04-27 10:52:00,
2013-04-27 04:07:00,48.3,45.0,30.15,ENE,77,7.0,8.0,88,0.00,,,0.00,weatherlink.com 1.10,2013-04-27 11:07:00,
2013-04-27 04:22:00,48.3,45.0,30.15,ENE,77,7.0,8.0,89,0.00,,,0.00,weatherlink.com 1.10,2013-04-27 11:22:00,
2013-04-27 04:37:00,48.2,45.0,30.14,ENE,76,6.0,8.0,89,0.00,,,0.00,weatherlink.com 1.10,2013-04-27 11:37:00,
2013-04-27 04:52:00,48.0,45.0,30.14,East,79,3.0,8.0,90,0.00,,,0.00,weatherlink.com 1.10,2013-04-27 11:52:00,
2013-04-27 05:07:00,47.9,45.0,30.13,ENE,77,8.0,9.0,90,0.00,,,0.00,weatherlink.com 1.10,2013-04-27 12:07:00,
2013-04-27 05:22:00,47.7,45.0,30.12,ENE,73,5.0,8.0,90,0.00,,,0.00,weatherlink.com 1.10,2013-04-27 12:22:00,
2013-04-27 05:37:00,47.6,45.0,30.12,ENE,73,8.0,9.0,91,0.00,,,0.00,weatherlink.com 1.10,2013-04-27 12:37:00,
2013-04-27 05:52:00,47.5,45.0,30.12,ENE,73,5.0,7.0,91,0.00,,,0.00,weatherlink.com 1.10,2013-04-27 12:52:00,
2013-04-27 06:08:00,47.6,45.0,30.13,ENE,72,3.0,8.0,91,0.00,,,0.00,weatherlink.com 1.10,2013-04-27 13:08:00,
2013-04-27 06:22:00,47.6,45.0,30.12,East,82,1.0,8.0,91,0.00,,,0.00,weatherlink.com 1.10,2013-04-27 13:22:00,
2013-04-27 06:37:00,47.7,46.0,30.11,ENE,73,5.0,8.0,92,0.00,,,0.00,weatherlink.com 1.10,2013-04-27 13:37:00,
2013-04-27 06:52:00,47.6,45.0,30.11,NE,52,2.0,7.0,91,0.00,,,0.00,weatherlink.com 1.10,2013-04-27 13:52:00,
2013-04-27 07:07:00,47.7,45.0,30.11,NE,36,0.0,5.0,91,0.00,,,0.00,weatherlink.com 1.10,2013-04-27 14:07:00,
2013-04-27 07:22:00,47.9,46.0,30.12,NE,39,0.0,6.0,91,0.00,,,0.00,weatherlink.com 1.10,2013-04-27 14:22:00,
2013-04-27 07:37:00,48.0,46.0,30.11,ENE,65,6.0,6.0,91,0.00,,,0.00,weatherlink.com 1.10,2013-04-27 14:37:00,
2013-04-27 07:52:00,48.1,46.0,30.11,ENE,60,0.0,2.0,91,0.00,,,0.00,weatherlink.com 1.10,2013-04-27 14:52:00,
2013-04-27 08:07:00,48.3,46.0,30.12,ENE,67,5.0,7.0,90,0.00,,,0.00,weatherlink.com 1.10,2013-04-27 15:07:00,
2013-04-27 08:22:00,48.5,46.0,30.12,NE,51,0.0,6.0,90,0.00,,,0.00,weatherlink.com 1.10,2013-04-27 15:22:00,
2013-04-27 08:37:00,48.6,46.0,30.13,NE,51,4.0,4.0,90,0.00,,,0.00,weatherlink.com 1.10,2013-04-27 15:37:00,
2013-04-27 08:52:00,48.8,46.0,30.14,NNW,335,0.0,4.0,90,0.00,,,0.00,weatherlink.com 1.10,2013-04-27 15:52:00,
2013-04-27 09:07:00,48.9,46.0,30.14,SSW,195,0.0,2.0,90,0.00,,,0.00,weatherlink.com 1.10,2013-04-27 16:07:00,
2013-04-27 09:22:00,49.1,46.0,30.15,SW,222,0.0,5.0,89,0.00,,,0.00,weatherlink.com 1.10,2013-04-27 16:22:00,
2013-04-27 09:37:00,49.4,46.0,30.15,North,350,3.0,6.0,89,0.00,,,0.00,weatherlink.com 1.10,2013-04-27 16:37:00,
2013-04-27 09:52:00,50.0,47.0,30.15,ENE,61,2.0,4.0,88,0.00,,,0.00,weatherlink.com 1.10,2013-04-27 16:52:00,
2013-04-27 10:08:00,50.5,47.0,30.15,East,94,3.0,4.0,88,0.00,,,0.00,weatherlink.com 1.10,2013-04-27 17:08:00,
2013-04-27 10:23:00,51.2,47.0,30.15,NE,38,3.0,3.0,86,0.00,,,0.00,weatherlink.com 1.10,2013-04-27 17:23:00,
2013-04-27 10:38:00,51.6,48.0,30.16,NE,46,3.0,3.0,86,0.00,,,0.00,weatherlink.com 1.10,2013-04-27 17:38:00,
2013-04-27 10:53:00,51.3,47.0,30.17,ENE,63,3.0,5.0,84,0.00,,,0.00,weatherlink.com 1.10,2013-04-27 17:53:00,
2013-04-27 11:08:00,51.1,46.0,30.16,NE,40,1.0,4.0,84,0.00,,,0.00,weatherlink.com 1.10,2013-04-27 18:08:00,
2013-04-27 11:23:00,51.7,47.0,30.17,ENE,60,0.0,4.0,85,0.00,,,0.00,weatherlink.com 1.10,2013-04-27 18:23:00,
2013-04-27 11:38:00,51.9,49.0,30.17,NNE,33,0.0,5.0,88,0.00,,,0.00,weatherlink.com 1.10,2013-04-27 18:38:00,
2013-04-27 11:53:00,52.4,50.0,30.16,NNE,27,1.0,4.0,91,0.00,,,0.00,weatherlink.com 1.10,2013-04-27 18:53:00,
2013-04-27 12:08:00,52.5,50.0,30.16,NE,50,1.0,4.0,91,0.00,,,0.00,weatherlink.com 1.10,2013-04-27 19:08:00,
2013-04-27 12:23:00,52.0,49.0,30.16,NE,34,0.0,4.0,90,0.00,,,0.00,weatherlink.com 1.10,2013-04-27 19:23:00,
2013-04-27 12:38:00,51.7,48.0,30.17,NNW,327,0.0,5.0,88,0.00,,,0.00,weatherlink.com 1.10,2013-04-27 19:38:00,
2013-04-27 12:53:00,51.6,49.0,30.17,ENE,59,0.0,2.0,89,0.00,,,0.00,weatherlink.com 1.10,2013-04-27 19:53:00,
2013-04-27 13:08:00,51.6,47.0,30.16,North,360,2.0,4.0,85,0.00,,,0.00,weatherlink.com 1.10,2013-04-27 20:08:00,
2013-04-27 13:23:00,51.7,48.0,30.17,NE,53,1.0,3.0,86,0.00,,,0.00,weatherlink.com 1.10,2013-04-27 20:23:00,
2013-04-27 13:38:00,51.5,48.0,30.18,NNW,329,0.0,4.0,86,0.00,,,0.00,weatherlink.com 1.10,2013-04-27 20:38:00,
2013-04-27 13:53:00,51.5,48.0,30.17,NNE,20,1.0,3.0,86,0.00,,,0.00,weatherlink.com 1.10,2013-04-27 20:53:00,
2013-04-27 14:08:00,51.6,48.0,30.17,NE,38,2.0,6.0,86,0.00,,,0.00,weatherlink.com 1.10,2013-04-27 21:08:00,
2013-04-27 14:23:00,51.7,48.0,30.17,NE,40,0.0,5.0,86,0.00,,,0.00,weatherlink.com 1.10,2013-04-27 21:23:00,
2013-04-27 14:38:00,51.7,47.0,30.17,WSW,248,1.0,4.0,85,0.00,,,0.00,weatherlink.com 1.10,2013-04-27 21:38:00,
2013-04-27 14:53:00,51.9,48.0,30.17,North,350,0.0,4.0,85,0.00,,,0.00,weatherlink.com 1.10,2013-04-27 21:53:00,
2013-04-27 15:08:00,52.4,48.0,30.18,NW,321,0.0,3.0,86,0.00,,,0.00,weatherlink.com 1.10,2013-04-27 22:08:00,
2013-04-27 15:23:00,52.7,48.0,30.17,ENE,65,1.0,4.0,85,0.00,,,0.00,weatherlink.com 1.10,2013-04-27 22:23:00,
2013-04-27 15:38:00,53.0,49.0,30.18,West,259,1.0,3.0,85,0.00,,,0.00,weatherlink.com 1.10,2013-04-27 22:38:00,
2013-04-27 15:53:00,53.0,48.0,30.17,ENE,58,1.0,4.0,84,0.00,,,0.00,weatherlink.com 1.10,2013-04-27 22:53:00,
2013-04-27 16:08:00,52.8,49.0,30.17,NE,50,1.0,3.0,86,0.00,,,0.00,weatherlink.com 1.10,2013-04-27 23:08:00,
2013-04-27 16:23:00,52.6,48.0,30.17,NE,42,1.0,6.0,85,0.00,,,0.00,weatherlink.com 1.10,2013-04-27 23:23:00,
2013-04-27 16:38:00,52.3,48.0,30.18,ENE,61,0.0,3.0,86,0.00,,,0.00,weatherlink.com 1.10,2013-04-27 23:38:00,
2013-04-27 16:53:00,52.1,48.0,30.18,ENE,67,0.0,3.0,87,0.00,,,0.00,weatherlink.com 1.10,2013-04-27 23:53:00,
2013-04-27 17:08:00,51.8,48.0,30.17,NE,55,2.0,3.0,87,0.00,,,0.00,weatherlink.com 1.10,2013-04-28 00:08:00,
2013-04-27 17:23:00,51.7,48.0,30.17,NNE,13,1.0,2.0,88,0.00,,,0.00,weatherlink.com 1.10,2013-04-28 00:23:00,
2013-04-27 17:38:00,51.7,48.0,30.17,NNE,15,0.0,4.0,86,0.00,,,0.00,weatherlink.com 1.10,2013-04-28 00:38:00,
2013-04-27 17:53:00,51.9,48.0,30.16,NNW,333,1.0,8.0,86,0.00,,,0.00,weatherlink.com 1.10,2013-04-28 00:53:00,
2013-04-27 18:08:00,51.9,48.0,30.17,ENE,61,3.0,3.0,86,0.00,,,0.00,weatherlink.com 1.10,2013-04-28 01:08:00,
2013-04-27 18:23:00,51.9,48.0,30.16,South,185,2.0,5.0,87,0.00,,,0.00,weatherlink.com 1.10,2013-04-28 01:23:00,
2013-04-27 18:38:00,51.7,48.0,30.16,NNW,330,0.0,6.0,88,0.00,,,0.00,weatherlink.com 1.10,2013-04-28 01:38:00,
2013-04-27 18:53:00,51.6,49.0,30.16,NNE,26,2.0,3.0,89,0.00,,,0.00,weatherlink.com 1.10,2013-04-28 01:53:00,
2013-04-27 19:08:00,51.5,48.0,30.15,SSW,206,0.0,6.0,89,0.00,,,0.00,weatherlink.com 1.10,2013-04-28 02:08:00,
2013-04-27 19:23:00,51.8,48.0,30.15,SE,134,1.0,10.0,86,0.00,,,0.00,weatherlink.com 1.10,2013-04-28 02:23:00,
2013-04-27 19:38:00,52.2,48.0,30.15,WNW,300,0.0,8.0,84,0.00,,,0.00,weatherlink.com 1.10,2013-04-28 02:38:00,
2013-04-27 19:53:00,52.1,47.0,30.16,East,84,0.0,7.0,84,0.00,,,0.00,weatherlink.com 1.10,2013-04-28 02:53:00,
2013-04-27 20:08:00,51.8,48.0,30.16,NE,55,0.0,5.0,85,0.00,,,0.00,weatherlink.com 1.10,2013-04-28 03:08:00,
2013-04-27 20:23:00,51.6,47.0,30.15,South,179,3.0,7.0,84,0.00,,,0.00,weatherlink.com 1.10,2013-04-28 03:23:00,
2013-04-27 20:38:00,51.4,46.0,30.16,South,187,2.0,10.0,83,0.00,,,0.00,weatherlink.com 1.10,2013-04-28 03:38:00,
2013-04-27 20:53:00,51.3,46.0,30.16,SW,225,6.0,10.0,83,0.00,,,0.00,weatherlink.com 1.10,2013-04-28 03:53:00,
2013-04-27 21:08:00,51.1,46.0,30.16,SW,221,4.0,7.0,83,0.00,,,0.00,weatherlink.com 1.10,2013-04-28 04:08:00,
2013-04-27 21:23:00,51.0,46.0,30.17,South,172,6.0,9.0,84,0.00,,,0.00,weatherlink.com 1.10,2013-04-28 04:23:00,
2013-04-27 21:38:00,50.7,46.0,30.17,SSW,203,2.0,9.0,84,0.00,,,0.00,weatherlink.com 1.10,2013-04-28 04:38:00,
2013-04-27 21:53:00,50.3,46.0,30.17,SSW,199,0.0,13.0,84,0.00,,,0.00,weatherlink.com 1.10,2013-04-28 04:53:00,
2013-04-27 22:08:00,50.1,46.0,30.18,SSW,211,3.0,5.0,84,0.00,,,0.00,weatherlink.com 1.10,2013-04-28 05:08:00,
2013-04-27 22:24:00,49.9,45.0,30.18,SSW,202,1.0,6.0,84,0.00,,,0.00,weatherlink.com 1.10,2013-04-28 05:24:00,
2013-04-27 22:38:00,49.7,45.0,30.18,North,356,0.0,5.0,84,0.00,,,0.00,weatherlink.com 1.10,2013-04-28 05:38:00,
2013-04-27 22:53:00,49.4,45.0,30.18,ESE,113,0.0,3.0,84,0.00,,,0.00,weatherlink.com 1.10,2013-04-28 05:53:00,
2013-04-27 23:08:00,49.2,45.0,30.18,SSW,202,2.0,8.0,84,0.00,,,0.00,weatherlink.com 1.10,2013-04-28 06:08:00,
2013-04-27 23:23:00,49.5,44.0,30.18,SSW,202,2.0,9.0,82,0.00,,,0.00,weatherlink.com 1.10,2013-04-28 06:23:00,
2013-04-27 23:38:00,49.3,44.0,30.18,SW,233,3.0,6.0,82,0.00,,,0.00,weatherlink.com 1.10,2013-04-28 06:38:00,
2013-04-27 23:53:00,49.1,43.0,30.18,SW,217,0.0,8.0,78,0.00,,,0.00,weatherlink.com 1.10,2013-04-28 06:53:00,